Sachs Harbour Airport, Northwest Territories

Past 24 Hour Conditions

Date / Time
(MDT)
Conditions Temp
(°C)
Humidity
(%)
Dew Point
(°C)
Wind
(km/h)
Pressure
(kPa)
Visibility
(km)
04 July 2015
5:00 N/A 4   95 3 WNW 17 101.7 N/A
4:00 N/A 4   92 3 NW 18 101.7 N/A
3:00 N/A 5 93 4 WNW 13 101.7 N/A
2:00 N/A 5 95 4 NNW 19 101.7 N/A
1:00 N/A 7 91 5 NW 24 101.7 N/A
00:00 N/A 8 89 6 N 14 101.6 N/A
03 July 2015
23:00 N/A 8 79 5 NNW 24 101.6 N/A
22:00 N/A 10 71 5 N 25 101.6 N/A
21:00 N/A 10 70 5 NNW 33 101.6 N/A
20:00 N/A 12 64 5 NNW 39 101.5 N/A
19:00 N/A 13   70 7 NNW 38 101.4 N/A
18:00 Partly Cloudy 12 71 7 NNW 34 101.5 16
17:00 Smoke 11 77 7 SW 8 101.4 16
16:00 Smoke 10 77 6 S 9 101.4 16
15:00 Smoke 9 78 6 SE 5 101.4 16
14:00 Smoke 8 82 5 SSW 9 101.4 16
13:00 Smoke 8 81 5 SSE 18 101.4 16
12:00 Smoke 8 82 5 SSE 21 101.3 16
11:00 Smoke 9 78 5 S 23 101.3 16
10:00 Partly Cloudy 10 76 6 SSE 27 101.3 16
9:00 Partly Cloudy 11 71 6 SSE 27 101.3 16
8:00 Smoke 12 66 6 SSE 23 101.3 16
7:00 Smoke 13   61 6 SE 21 101.3 16
6:00 N/A 12 51 2 ESE 19 101.2 N/A
5:00 N/A 11 58 3 ESE 20 101.2 N/A
N/A Not available
↑ Highest temperature
↓ Lowest temperature

If you require additional historical weather information, please visit Climate Data Online.

What we are doing

Date modified: